COSMOS 1275 DEB, 13471

Orbit data source: Space-Track

COSMOS 1275 DEB, 13471 is space debris in LEO originally from a launch on Thu, 04 Jun 1981 UTC launched from the Plesetsk Missile And Space Complex (PKMTR). Debris objects in space refer to the collection of defunct objects orbiting the Earth. Examples of debris include non-operational satellites, rocket bodies, and fragments generated from explosions, collisions, or faulty payload assembly.

Loading next visibility...
Identifier
13471, 1981-053FT
Orbit
LEO
Country
Flag of CISCIS
Related business
Manufacturer
Unknown
Mission
Spacecraft
Bus & Motor
Unknown
Mass
Unknown
Launch date (UTC)
1981-06-04 (45 years ago)
Launch vehicle
Unknown
Launch site
Plesetsk Missile And Space Complex (PKMTR)
Object type
Payload
Rocket body
Debris
Shape & HBR
Unknown shape, 0.1 m
Radar Cross Section
Small (<0.1 m²)

Expand to show TLE details & history
Last TLE update: 15 hours ago

TLE from 15 hours ago
0 COSMOS 1275 DEB
1 13471U 81053FT  25340.44021000  .00003219  00000-0  20664-2 0  9993
2 13471  82.8071 339.6305 0051998 151.9364   1.1693 14.02280391200512
Epoch: 2025-12-06T10:33Z
TLE epoch observation values (Epoch: 2025-12-06T10:33:54.143Z)
Latitude
26.69038°
Longitude
-77.93147°
Altitude
851.411 km
Speed
7.449 km/s
True Right ascension
10h 24m 02s
True Declination
26° 33' 16"
Sunlit
Object was in daylight at epoch
Visualization orbit readout
Latitude
Unknown
Longitude
Unknown
Altitude
Unknown
Speed
Unknown
Apparent Right ascension
Unknown
Apparent Declination
Unknown
Sunlit
N/A
Visualization observer readout
Local Sidereal Time
23:21:34
Azimuth
Unknown
Elevation
Unknown
Doppler factor
Unknown
Orbital elements
Apogee altitude
920.782 km
Perigee altitude
845.269 km
Semi-major axis
7,261.163 km
Eccentricity
0.0052
Inclination
82.8071°
RAAN
339.6305°
Arg. of periapsis
151.9364°
True anomaly
1.18154°
Mean anomaly
1.1693°
Eccentric anomaly
1.17541°
Mean motion
3.50779 °/min
Orbital period
102.63 mins
BSTAR
0.0020664
Loading maneuver chart data...
Computing Atmospheric mass density...

Documentation

Showing up to 5 results
|